Theta_e
308 308 308 308 308 308 308 308 308 308 308 309 308 308 309 310 310 311 311 311 311 314 315 315 315 315 314 313 312 314 316 317 319 318 317 317 314 313 312 312 312 312 312 313 314 315 316 316 316 317 319 320 320 321 321 321 321 320 322 320 318 319 320 321 321 320 319 319 318 315 314 315 316 313 312 311 311 313 313 313 313 313 313 311 307 306 310 309
308 308 308 308 308 308 308 308 308 308 309 308 308 309 308 309 309 310 310 310 310 313 315 315 315 315 315 314 313 313 315 317 319 319 318 317 314 312 311 311 312 312 312 315 316 316 316 317 316 316 317 319 320 321 321 321 320 320 322 320 319 322 321 320 319 318 318 318 317 316 315 315 316 315 312 312 314 313 313 314 312 313 312 310 307 306 309 307
309 308 308 308 308 308 309 309 309 309 309 309 309 308 308 308 308 309 309 310 310 311 314 315 315 316 315 314 314 312 314 318 320 320 319 317 313 311 310 310 311 312 312 315 316 315 316 316 316 316 316 319 320 320 321 320 318 319 321 320 321 321 320 319 317 317 317 316 317 316 315 315 316 315 312 312 315 314 314 314 313 313 313 312 308 307 308 307
309 309 309 309 309 309 309 309 309 309 309 309 309 309 308 308 308 308 308 309 310 310 313 315 315 316 315 315 314 313 316 321 319 318 317 315 313 311 310 310 310 311 312 313 313 314 315 315 316 316 317 319 319 319 319 319 318 320 319 319 321 319 318 318 316 316 315 315 315 315 315 314 315 314 312 313 315 315 316 315 315 314 314 314 309 307 308 307
310 310 310 310 309 309 309 309 309 309 309 309 309 309 309 308 308 308 308 309 310 310 313 314 315 315 315 315 313 314 318 321 319 317 315 313 312 310 310 310 310 311 312 312 313 314 314 316 316 316 317 319 320 319 318 318 317 318 318 318 319 317 318 317 315 315 314 313 314 315 315 314 314 313 313 314 314 316 316 316 316 315 315 315 310 307 308 308
310 310 310 310 310 310 310 309 309 309 309 309 309 309 309 308 308 307 308 308 309 310 313 314 315 315 315 315 314 316 319 319 319 317 313 311 310 310 311 310 310 311 312 312 313 315 315 316 315 316 318 318 320 319 318 317 315 316 318 318 318 317 317 316 314 313 312 312 313 314 314 314 313 313 314 313 314 316 315 314 314 314 314 315 311 308 308 308
309 309 309 310 310 310 310 310 310 309 310 309 309 309 309 309 308 308 307 308 309 310 313 314 314 315 314 314 315 317 320 319 319 316 312 311 310 310 311 310 310 311 312 313 314 316 317 317 317 317 318 318 319 319 317 316 314 315 317 318 316 315 315 315 313 311 311 312 313 313 312 313 313 314 314 314 314 315 315 313 312 312 312 313 311 309 308 308
309 309 309 309 309 309 309 309 309 309 309 309 309 309 309 309 308 308 307 307 308 310 313 314 313 314 313 316 319 318 319 321 318 315 313 312 311 311 311 311 310 310 313 314 315 316 317 318 318 318 318 318 318 317 316 315 315 316 316 317 316 314 314 314 313 312 312 312 312 311 311 313 314 314 313 313 314 314 314 313 311 310 310 311 310 309 309 309
310 309 309 309 308 308 308 309 308 308 309 309 309 309 309 309 308 308 307 307 308 309 313 313 314 315 313 318 321 318 321 322 317 315 315 314 312 311 312 312 311 311 314 314 313 316 317 318 319 318 318 318 317 317 315 315 316 315 316 316 315 315 314 314 313 312 312 312 312 311 312 313 313 312 312 313 314 314 314 314 312 310 309 310 310 309 309 309
310 310 310 309 309 309 308 308 308 308 308 308 308 308 308 308 308 308 307 307 307 309 312 313 314 315 315 319 319 318 321 319 314 314 314 314 313 311 312 312 311 312 314 314 314 316 316 318 319 317 317 317 316 316 315 315 315 313 314 314 314 314 314 313 313 313 313 312 312 311 312 314 312 311 314 314 313 313 314 313 313 310 310 310 309 309 309 309
311 310 310 309 309 309 309 308 308 308 308 308 308 308 308 308 308 308 307 307 307 309 312 314 314 315 318 320 317 319 319 315 314 314 313 313 312 312 312 311 310 312 314 314 316 316 316 318 317 316 317 316 315 315 314 313 312 312 312 313 314 314 314 313 313 312 312 312 312 311 312 313 312 310 314 313 310 311 313 313 312 310 310 310 309 310 309 309
311 311 310 309 309 309 309 308 309 308 308 308 308 308 308 308 308 308 307 307 307 309 312 314 314 315 319 318 316 320 317 314 314 313 312 312 312 312 312 311 310 312 313 315 317 315 314 317 316 316 316 315 316 316 314 311 311 312 311 313 315 315 315 314 313 312 312 312 311 311 311 312 313 312 314 313 310 310 312 312 312 310 310 310 310 310 309 309
311 311 310 310 309 309 309 308 308 308 308 308 308 308 308 308 308 308 307 307 307 309 312 314 313 314 318 317 317 318 316 314 313 312 311 311 311 311 310 310 310 310 311 314 317 313 312 314 315 316 315 315 317 314 311 310 311 312 312 313 314 315 315 315 314 312 312 312 310 311 311 312 315 314 315 314 310 310 311 311 312 311 310 310 310 309 309 309
311 311 310 310 309 309 308 308 308 308 308 309 309 309 308 308 308 308 308 307 308 311 314 314 313 316 318 316 316 315 314 314 313 313 311 310 312 311 310 310 309 309 310 312 314 311 310 313 314 315 313 313 314 311 311 312 311 313 314 314 314 314 315 315 313 311 312 311 310 312 311 312 315 315 316 314 311 311 311 312 312 312 311 310 310 309 308 308
312 311 311 310 310 309 308 307 307 307 307 308 309 309 309 308 308 308 308 308 311 313 314 314 314 317 318 316 316 313 313 313 313 314 312 311 313 314 312 311 310 310 310 310 311 310 311 313 314 315 312 310 312 312 315 316 314 315 314 313 315 314 315 316 313 312 314 311 310 312 311 313 315 316 315 313 311 311 312 313 313 313 313 311 310 309 308 308
312 312 311 310 309 309 308 306 306 306 306 306 307 308 309 308 308 308 308 310 312 313 315 317 316 316 317 316 315 313 313 314 315 314 311 311 314 315 314 312 312 311 311 310 310 310 312 313 314 315 313 311 313 315 316 316 316 317 315 313 315 314 315 316 313 312 313 312 311 311 312 313 314 315 313 310 311 311 312 313 313 313 313 312 311 309 309 308
312 312 311 310 309 308 307 306 305 305 305 305 305 307 308 309 308 308 310 311 313 314 315 318 317 315 315 315 314 315 315 316 316 314 311 310 312 314 313 313 314 313 312 311 312 313 313 314 314 313 314 313 315 316 315 314 313 315 316 315 316 315 314 314 313 312 312 312 312 312 312 313 314 314 313 310 311 311 312 313 313 313 313 313 313 310 309 309
312 311 311 309 309 308 307 307 306 305 305 305 305 306 307 308 308 310 314 313 313 314 314 315 316 315 314 314 314 315 316 316 315 313 311 310 310 312 313 313 314 313 313 313 312 313 314 314 315 315 315 315 315 316 314 314 313 312 313 313 314 315 314 314 314 312 311 312 312 313 313 313 313 314 314 313 312 312 312 312 313 313 313 313 313 312 310 309
312 312 310 310 309 308 307 307 307 306 305 305 305 305 307 311 311 312 315 314 313 315 315 315 316 315 314 314 314 315 315 314 313 313 312 310 309 311 312 312 314 313 313 314 313 314 315 316 316 316 316 317 316 316 315 317 316 314 314 314 313 312 313 316 315 311 311 312 312 312 313 313 314 313 314 314 313 313 312 313 313 313 313 313 313 313 312 310
313 312 311 311 310 308 307 306 307 306 305 305 306 308 311 315 315 313 313 313 314 315 314 315 316 315 314 314 315 314 313 313 313 314 313 310 310 311 311 312 314 313 313 316 316 315 315 316 317 317 317 317 318 317 317 317 317 316 316 315 314 313 313 317 316 309 309 312 312 313 313 313 314 313 314 313 313 313 313 313 313 313 313 313 313 314 313 311
313 312 312 311 310 309 307 306 306 305 305 306 307 311 312 313 316 314 311 311 313 314 314 314 313 313 313 315 315 314 313 314 313 314 312 310 311 312 312 312 313 314 314 316 316 314 314 315 316 317 317 317 317 317 317 317 316 316 315 313 314 314 315 318 315 308 308 310 312 313 313 313 313 313 313 313 313 313 312 313 313 313 314 314 314 314 314 312
313 313 312 311 311 310 307 306 306 305 306 308 311 314 312 311 313 311 307 308 312 315 314 312 311 311 311 312 313 313 313 313 313 314 312 311 312 312 312 313 313 315 316 316 316 315 315 316 316 316 316 316 316 315 315 315 315 315 315 314 314 315 317 317 313 308 308 309 312 313 312 313 313 313 313 313 313 313 313 314 314 314 314 315 315 315 315 312
314 313 313 312 311 310 309 307 305 307 308 310 314 315 311 309 309 307 308 310 312 315 314 311 311 310 311 311 312 311 312 312 312 315 313 311 311 312 313 313 312 315 317 316 316 316 316 316 316 316 316 316 315 314 314 314 314 315 315 315 315 316 318 316 312 309 309 309 311 312 312 312 313 313 313 313 313 313 314 314 315 316 315 315 316 316 315 312
313 313 313 313 311 311 310 307 307 310 310 309 311 311 309 309 308 308 312 312 310 314 314 313 312 311 312 312 311 311 311 312 312 314 312 311 312 312 313 314 313 314 315 315 316 316 316 316 314 314 315 315 315 314 313 313 314 315 317 316 315 317 317 316 314 312 311 311 310 311 312 313 314 315 315 314 314 314 313 313 313 314 315 315 316 316 315 312
312 312 313 312 312 312 310 310 312 311 310 312 311 309 308 309 308 308 312 312 313 315 313 313 313 313 313 312 311 311 311 312 312 312 312 312 312 312 312 313 313 312 314 314 314 315 315 314 314 314 315 315 316 315 315 315 314 315 317 318 317 317 317 317 317 315 315 314 311 311 314 313 314 315 316 315 314 313 313 312 313 313 313 314 316 315 314 313
313 312 313 313 313 312 311 314 313 309 312 315 310 307 307 309 309 309 311 313 315 314 312 312 313 313 312 312 311 311 311 311 309 310 312 312 312 312 312 312 312 312 314 315 314 315 315 312 312 315 316 316 316 315 315 316 314 314 318 319 317 317 317 317 317 316 315 315 312 312 314 315 314 313 315 315 314 313 314 315 317 315 314 314 316 316 313 312
313 313 313 313 313 312 313 314 311 311 315 314 309 306 306 307 308 309 311 313 315 316 314 312 312 313 312 312 311 310 310 310 308 308 310 310 310 312 312 312 313 312 312 315 315 315 316 313 312 315 316 316 316 315 316 317 315 315 317 317 315 316 317 317 317 315 314 315 314 313 314 315 315 314 315 314 313 314 314 314 315 316 315 314 316 317 314 312
314 313 313 314 313 313 313 312 312 313 314 311 309 308 306 306 307 310 312 314 317 318 316 312 311 311 311 310 310 310 308 308 311 310 307 307 309 311 311 311 313 313 312 313 314 315 317 316 315 315 314 316 316 316 317 317 316 315 313 313 313 314 315 315 315 314 314 315 315 315 314 315 315 315 315 314 313 312 312 312 313 313 315 315 316 317 314 313
315 314 314 314 313 313 312 311 312 313 311 309 309 308 307 307 308 311 311 315 317 315 314 312 311 311 311 310 310 310 308 308 311 309 306 307 308 309 310 311 312 313 312 312 314 317 315 311 312 314 315 317 314 312 314 317 316 313 311 312 312 312 312 313 313 313 313 315 316 316 315 315 316 314 314 314 312 312 313 313 313 314 315 317 319 318 314 312
316 315 315 314 314 314 313 312 311 311 310 310 309 307 307 308 310 311 313 316 317 314 313 312 312 313 313 312 312 311 309 309 308 307 308 309 308 308 308 309 310 312 313 312 314 315 310 306 308 313 314 313 310 307 308 312 312 310 312 313 313 312 311 311 312 312 314 317 318 317 315 315 316 315 314 314 313 313 314 313 314 315 315 318 321 318 313 312
318 317 316 315 314 314 314 314 312 310 310 310 309 308 309 311 310 312 316 315 313 315 313 312 313 314 313 314 316 313 311 311 308 308 309 308 309 309 309 310 311 312 314 313 315 315 312 308 309 312 311 309 309 308 307 307 308 311 313 313 314 314 312 312 312 312 315 318 317 316 317 316 315 314 313 314 314 313 315 314 314 315 315 318 322 318 313 311
321 319 318 316 315 314 314 315 312 310 310 309 309 310 311 311 311 312 313 311 311 316 316 315 315 314 314 316 318 315 313 313 310 309 310 310 311 310 310 313 314 314 315 315 316 317 317 315 313 312 309 308 312 312 308 306 308 311 312 312 315 316 315 316 316 315 317 317 314 314 317 318 315 313 313 314 313 313 314 314 314 315 314 317 323 319 313 311
322 321 319 317 316 314 314 315 311 308 310 309 308 311 310 310 313 314 312 310 313 316 316 318 316 315 316 317 318 317 315 315 311 309 312 312 312 312 312 313 314 317 317 316 317 318 318 317 315 314 311 309 312 313 313 311 308 310 313 313 316 317 318 320 319 318 318 317 313 311 314 316 313 312 313 313 313 313 313 313 315 316 315 319 324 320 315 311
323 322 319 318 317 315 314 314 311 308 310 309 310 311 310 311 315 316 314 313 314 314 315 316 316 316 317 317 318 317 316 316 313 310 312 313 312 314 314 313 314 317 317 315 316 316 318 317 316 316 315 311 311 313 316 315 310 310 312 314 315 316 317 318 317 317 317 315 312 310 312 313 310 311 314 314 313 314 313 314 316 317 318 321 319 316 314 310
323 322 320 318 316 315 314 313 311 309 309 311 311 310 310 312 314 314 314 314 314 314 314 314 316 317 317 317 317 316 316 318 315 312 313 314 314 314 315 315 314 315 316 315 315 316 316 318 318 316 313 311 312 314 316 315 313 311 312 314 315 316 315 315 316 315 314 314 314 312 311 311 310 313 315 314 314 314 313 313 315 315 318 319 316 314 312 308
322 320 319 317 315 315 314 312 310 308 310 313 312 309 310 312 313 313 313 313 313 315 314 313 317 318 316 317 318 316 316 317 316 314 314 315 315 315 316 316 315 314 315 316 317 317 315 317 318 312 310 309 307 311 314 314 314 313 312 314 315 315 316 316 317 315 312 314 315 314 313 312 312 313 314 313 313 313 313 313 313 314 316 317 316 316 312 308
320 319 317 316 316 316 314 312 310 308 311 315 313 311 312 312 312 312 312 310 311 314 313 312 315 316 315 316 318 318 316 315 315 315 315 316 316 316 317 316 316 315 314 315 318 318 315 316 317 312 311 307 302 306 310 310 312 313 312 314 314 313 314 314 316 316 314 316 316 314 314 313 311 313 313 312 312 312 312 312 313 313 315 316 316 315 313 310
319 317 317 317 316 316 315 312 309 309 312 314 313 314 314 311 311 311 310 309 310 312 313 311 314 316 314 313 315 318 316 315 315 314 315 317 317 317 317 316 316 315 314 314 316 319 317 317 317 311 310 307 302 306 310 308 308 309 310 311 312 313 314 313 315 315 315 317 315 314 313 312 312 313 312 311 311 311 312 312 312 312 313 315 314 314 314 312
318 317 318 318 316 315 314 311 309 310 312 313 313 315 315 312 312 310 308 309 310 311 311 311 312 315 315 314 315 318 316 316 317 314 314 316 317 317 316 316 317 315 313 313 314 317 317 316 317 309 305 307 306 307 311 311 308 306 307 309 310 311 313 313 314 314 313 315 314 314 314 312 313 314 313 312 312 312 312 312 313 312 312 314 314 313 313 312
317 318 318 317 316 315 313 310 310 310 312 313 314 315 315 314 313 309 307 309 310 310 310 311 312 312 314 315 315 316 317 318 318 315 315 316 316 316 315 315 318 316 313 313 314 316 316 316 316 309 304 308 309 309 312 313 311 308 307 309 310 310 310 311 313 313 313 314 313 314 315 312 312 314 314 312 312 313 313 313 314 314 313 313 313 312 312 312
317 319 317 314 314 314 311 310 311 311 311 313 314 314 313 314 313 310 308 309 309 308 307 310 312 311 312 313 312 314 316 318 318 316 316 316 314 315 315 314 317 316 314 314 313 315 315 315 316 312 309 310 311 312 313 313 314 312 310 310 311 311 311 312 314 314 312 313 314 314 315 313 312 313 313 312 312 312 312 312 314 316 314 313 313 313 312 312
318 320 316 312 313 312 311 311 312 312 312 313 314 313 313 313 312 312 310 308 309 308 307 308 309 309 310 309 310 313 316 318 319 317 316 316 315 314 314 315 315 314 313 315 314 314 317 316 315 315 314 314 313 311 311 311 312 312 312 312 312 312 312 314 316 315 312 312 313 314 315 315 313 313 313 312 311 311 311 312 312 314 314 313 313 312 312 312
318 318 313 311 312 312 312 312 311 311 311 312 313 314 314 314 314 314 312 310 310 310 309 310 309 308 309 309 309 312 313 315 317 314 313 314 313 313 314 314 314 313 313 315 314 315 317 316 315 314 315 315 313 308 305 306 308 310 311 312 313 313 313 314 314 313 313 313 313 314 315 315 314 315 314 312 312 312 311 311 311 312 313 312 312 312 312 311
318 315 311 310 311 312 314 314 312 311 310 310 312 313 314 314 314 314 313 312 312 312 311 311 311 310 310 311 310 309 310 312 313 312 311 312 311 312 315 315 313 313 312 314 316 314 313 314 314 314 314 315 314 310 307 306 307 309 310 311 313 313 314 314 312 310 312 314 314 314 315 314 314 316 315 312 312 312 310 311 311 311 312 311 310 310 310 310
316 314 311 310 310 312 315 316 315 314 311 310 312 313 313 314 313 313 313 313 312 311 310 312 313 311 310 311 310 309 310 310 312 313 312 311 310 312 316 318 315 312 313 317 317 313 313 315 313 313 314 315 314 313 313 310 307 307 309 310 312 313 313 313 312 312 313 314 313 314 314 313 312 314 313 312 312 312 311 311 311 310 311 311 310 309 309 308
316 316 313 310 310 311 313 314 315 316 314 312 312 313 314 314 314 313 313 314 312 310 310 313 313 311 310 311 310 310 310 310 312 313 311 311 310 310 314 315 312 311 313 316 314 313 316 317 313 312 313 313 313 313 314 313 310 309 310 310 311 313 313 313 313 313 313 313 313 313 314 314 313 312 312 312 312 312 312 312 311 309 308 309 310 310 309 308
313 317 316 312 311 311 311 312 314 315 316 314 313 313 314 314 314 314 314 314 313 312 312 312 311 310 311 311 311 311 311 310 311 311 310 311 310 310 311 310 309 310 311 311 312 313 314 314 312 312 313 312 312 312 312 312 312 311 311 311 311 312 314 314 314 312 312 313 313 313 313 314 314 312 312 312 312 312 312 312 312 311 308 307 307 307 308 307
311 316 317 314 313 314 312 311 312 313 315 315 314 314 315 314 314 315 315 314 314 314 314 314 311 310 311 312 312 313 312 312 312 311 311 311 310 310 310 309 311 313 311 309 310 311 311 311 312 313 313 312 312 311 311 312 312 312 312 312 312 311 313 314 313 312 313 313 313 313 313 314 313 311 312 312 312 312 312 311 312 311 310 308 307 306 306 306
309 312 313 313 315 316 314 313 312 312 313 315 315 314 315 315 315 315 315 315 315 314 314 315 314 311 311 311 313 314 314 314 315 313 312 311 311 311 311 310 312 312 310 309 310 311 311 311 313 313 313 313 313 312 311 311 312 312 312 313 313 312 312 312 312 312 313 313 312 312 313 313 312 311 311 311 311 312 311 311 311 310 310 310 309 307 306 306
308 309 310 311 312 312 312 312 312 312 312 313 315 314 314 315 315 315 315 315 315 315 314 315 315 314 313 313 313 313 314 314 316 316 315 314 313 312 311 312 313 310 308 309 311 311 311 311 312 313 313 313 313 312 312 312 312 312 312 313 313 312 312 312 312 312 312 312 312 312 313 312 311 310 310 311 311 311 311 311 310 310 310 310 310 309 308 307
304 305 306 308 308 307 308 309 311 312 312 313 314 314 314 315 314 315 315 315 316 316 315 315 315 315 315 315 314 313 313 313 314 316 316 315 315 314 313 314 314 311 308 309 310 310 310 311 311 312 313 314 313 313 313 312 312 313 313 313 312 312 312 312 312 312 312 312 312 313 313 312 311 311 311 311 311 310 310 310 310 310 310 309 309 309 309 309
301 300 302 303 305 306 308 308 309 311 312 313 313 313 314 314 314 314 316 316 315 315 315 315 315 316 316 316 316 315 313 313 313 313 314 314 315 315 315 316 317 313 309 309 309 309 309 311 311 312 313 314 313 313 313 313 314 314 313 312 312 312 312 311 312 312 312 312 312 312 312 311 310 311 311 310 310 310 310 310 310 310 309 309 309 309 309 308
Wind_Speed
11 12 12 13 13 13 13 14 14 15 15 15 15 15 15 15 14 14 15 15 14 10 6 7 6 4 6 8 8 7 7 7 7 7 8 9 9 10 10 9 8 7 5 4 2 4 6 8 8 7 6 5 4 2 3 2 2 3 4 5 6 6 5 1 4 3 3 5 1 6 7 9 7 7 5 1 6 10 9 9 8 8 8 3 7 7 11 19
10 11 12 12 13 13 13 13 14 14 14 14 14 15 15 14 14 14 14 15 15 12 7 6 7 5 5 8 8 8 9 9 11 12 12 12 11 10 9 8 7 6 5 3 3 6 6 6 6 8 6 4 3 3 4 3 2 5 4 5 6 6 3 2 5 4 4 6 2 3 7 9 6 5 7 6 10 11 13 13 10 12 12 9 10 10 14 18
10 11 12 12 13 13 13 13 13 14 14 14 14 14 14 14 14 14 14 14 15 13 8 6 6 6 4 6 8 8 7 9 12 10 11 15 13 10 7 6 6 7 6 4 4 6 6 7 5 7 7 5 4 3 4 3 3 5 4 6 5 4 3 2 4 5 4 5 4 4 4 7 6 3 7 7 11 12 15 13 11 14 15 15 14 14 17 18
11 12 12 13 13 13 14 14 14 14 14 14 14 13 13 13 14 14 13 13 14 14 10 7 6 6 4 4 6 6 5 8 8 3 8 14 12 10 8 5 5 7 6 5 5 5 6 6 5 7 6 5 4 3 5 4 2 2 4 7 4 3 5 3 2 3 3 2 6 5 2 7 7 4 6 7 10 12 14 13 14 15 16 16 15 16 18 19
11 12 12 13 14 14 14 14 15 15 15 14 14 14 14 13 13 13 14 13 14 13 10 7 6 5 4 3 4 4 3 5 1 2 7 12 12 10 8 6 5 6 5 5 5 4 5 4 4 5 5 6 4 4 6 5 2 2 7 10 6 3 6 2 2 1 0 1 6 6 5 5 3 5 10 11 11 11 6 5 11 13 13 11 16 18 17 18
11 12 13 13 14 14 15 15 16 16 16 16 15 15 15 14 14 14 14 13 14 13 9 6 6 5 4 2 5 4 4 3 2 2 7 9 10 9 6 5 4 5 5 5 5 5 6 5 5 6 5 6 6 6 4 5 3 5 8 9 6 5 6 2 2 1 1 4 7 7 5 2 4 8 11 14 18 14 2 3 1 3 3 4 16 17 16 18
13 13 14 14 15 15 15 16 16 16 17 17 17 16 16 16 15 14 15 14 14 13 8 5 5 4 2 3 5 5 7 5 1 4 7 7 9 8 6 4 4 4 5 7 7 7 6 5 7 5 6 7 7 7 3 4 5 7 8 7 5 4 7 4 1 2 3 7 7 3 4 5 10 11 8 14 20 18 10 3 3 3 2 6 14 15 16 18
14 14 15 15 16 16 16 17 17 17 17 17 17 17 17 17 17 16 15 14 14 12 7 4 4 2 2 4 3 5 8 5 2 5 7 8 8 7 5 3 4 4 5 8 7 6 5 7 7 3 7 6 3 4 2 3 7 10 10 7 3 3 7 6 2 4 5 6 5 4 7 11 13 8 9 17 18 16 15 9 6 6 6 9 12 15 15 16
14 14 15 15 16 17 17 18 18 19 18 18 17 17 17 18 17 17 16 15 15 12 7 4 3 2 5 4 4 6 5 4 5 6 7 8 8 7 5 3 4 5 6 7 5 6 4 5 5 2 7 6 3 4 1 4 5 6 7 7 5 6 7 6 6 8 7 6 5 6 12 13 8 4 11 21 19 16 16 14 10 8 9 11 12 14 15 15
15 15 15 15 16 16 17 17 18 19 19 19 18 17 17 17 17 17 17 16 15 12 6 4 2 4 6 5 5 5 2 3 5 5 6 8 7 5 5 5 5 6 6 4 4 6 4 4 2 2 6 5 4 3 2 4 3 3 7 8 9 11 9 7 9 9 6 6 8 10 13 11 3 1 12 12 6 10 12 14 12 9 11 13 12 13 14 15
17 17 17 17 17 17 17 17 17 18 19 19 19 18 18 17 17 17 17 17 16 11 6 4 3 5 5 6 7 5 1 3 4 5 5 6 7 6 6 6 6 6 6 5 3 3 4 3 1 1 3 2 3 3 3 3 4 5 7 10 12 13 11 10 11 10 7 5 8 9 11 12 5 6 18 9 5 5 9 11 12 11 11 12 13 13 12 13
19 19 20 19 19 19 18 18 18 18 19 19 19 19 18 17 17 17 17 17 16 11 6 4 4 6 5 7 8 6 3 3 3 4 5 5 7 7 7 7 7 7 6 5 3 2 2 0 3 6 3 3 5 3 2 2 3 6 5 10 13 12 13 14 13 9 8 5 6 5 8 13 12 14 23 13 8 7 8 10 11 12 11 11 12 11 11 12
19 20 21 21 21 22 21 20 19 19 19 20 19 18 18 17 17 17 17 18 15 9 6 5 4 6 5 6 5 7 7 7 5 4 5 6 5 5 5 6 7 8 7 5 3 5 5 3 3 6 2 4 6 2 1 2 3 6 6 7 10 11 12 11 9 7 8 5 6 5 8 10 13 21 21 8 11 9 9 11 11 11 11 10 11 10 11 12
20 21 22 22 23 23 23 22 21 21 21 22 20 18 17 16 17 16 17 18 13 6 6 5 4 5 5 5 3 7 10 10 8 5 6 6 4 3 3 4 4 6 7 5 5 7 7 5 3 3 1 3 4 1 4 5 4 5 5 5 6 9 7 6 8 9 9 4 7 7 7 11 11 15 14 9 11 10 10 12 12 12 11 10 11 11 11 12
20 21 22 23 24 24 24 24 23 23 23 24 22 20 18 16 16 15 16 15 9 5 5 4 6 5 5 6 3 5 8 8 8 8 8 7 6 4 4 4 4 5 5 6 7 7 6 4 3 3 1 1 2 4 7 7 6 6 5 6 7 7 6 6 9 11 8 3 8 9 6 11 14 6 7 9 9 10 10 11 11 13 13 12 11 11 11 12
20 21 22 23 24 25 25 25 24 24 24 25 24 22 18 16 16 14 13 10 6 5 4 3 7 6 6 4 2 3 6 7 8 9 10 10 7 4 6 6 5 5 4 5 6 6 4 3 2 2 1 2 5 6 7 7 7 7 7 8 8 8 9 6 7 9 7 4 10 12 7 9 10 1 7 7 8 9 10 12 13 15 15 13 12 11 11 11
20 21 22 23 23 24 24 24 23 23 24 25 25 22 18 16 15 13 10 7 5 4 5 2 4 6 5 2 2 3 4 6 8 8 10 12 8 5 7 6 4 4 5 5 4 4 4 3 1 1 4 6 6 5 5 7 7 6 7 7 9 11 11 7 3 5 7 6 9 13 11 13 14 10 6 6 9 10 11 14 16 17 16 15 12 12 12 12
19 21 21 21 22 22 22 22 21 22 23 23 22 20 18 14 12 8 3 4 3 4 4 2 3 4 4 4 3 1 4 5 7 8 9 11 9 7 5 3 4 5 6 4 4 5 5 3 2 4 6 7 7 6 6 8 9 10 9 7 9 11 11 12 5 4 10 8 9 11 13 17 19 18 16 12 11 13 14 15 17 18 18 16 13 13 13 13
19 19 19 20 21 22 22 20 20 21 21 22 18 15 13 9 7 5 6 7 5 3 2 4 7 4 2 4 3 3 5 6 7 7 7 8 8 7 4 3 5 6 5 4 6 7 4 3 4 5 8 9 10 11 12 14 14 14 12 9 11 11 11 15 7 5 9 7 9 13 15 18 19 17 18 17 15 14 15 15 16 17 17 14 14 14 13 13
17 18 19 20 22 23 22 19 20 19 18 18 15 10 7 5 4 4 6 7 9 9 6 4 10 7 4 2 5 5 5 6 6 5 8 9 8 8 7 5 4 5 7 7 6 4 3 5 7 9 12 12 12 14 15 17 14 12 11 10 13 13 13 16 7 4 5 5 10 14 16 19 19 18 18 17 17 17 18 18 18 17 15 13 14 14 14 13
17 18 19 20 21 23 22 19 20 18 14 12 10 6 4 3 4 3 0 6 13 13 10 6 5 9 8 1 6 7 3 4 6 6 10 11 8 7 8 8 6 6 9 9 4 3 3 6 12 16 17 13 8 8 11 14 14 12 11 11 13 11 13 15 4 5 5 3 9 13 15 19 18 17 17 17 18 18 19 21 20 19 16 13 14 15 13 9
17 18 19 20 21 23 22 19 19 16 11 7 5 4 2 4 2 1 2 7 11 8 7 7 4 9 8 2 5 6 1 7 7 8 13 12 9 8 8 9 9 8 7 7 4 3 6 10 18 20 11 5 3 4 8 12 13 11 9 8 10 10 12 11 2 6 4 4 7 11 13 17 17 18 18 19 19 18 18 20 19 17 16 14 13 12 10 8
16 17 18 18 20 23 22 20 17 12 9 6 4 4 2 3 2 3 1 6 8 5 8 9 9 11 10 5 6 7 6 11 10 10 17 16 9 8 8 10 11 10 8 10 9 7 8 10 14 12 5 5 8 6 7 10 9 9 8 7 10 9 8 7 2 3 5 7 8 11 12 14 16 17 19 22 21 17 17 17 17 15 14 15 13 9 7 10
14 15 17 17 19 22 22 21 13 7 9 6 4 4 3 0 3 3 2 5 7 6 6 6 7 10 11 5 7 12 10 10 8 8 18 18 10 6 9 11 11 11 10 14 15 13 14 8 2 2 4 7 10 7 8 8 7 9 10 10 11 11 11 10 3 3 7 8 4 8 11 11 12 13 14 14 12 12 12 11 13 14 13 13 12 8 8 9
13 14 15 16 18 21 23 16 6 7 9 4 3 4 1 3 4 2 2 5 7 4 1 3 4 7 8 5 8 10 5 7 6 4 14 15 8 7 6 7 9 13 14 17 15 13 16 7 4 4 5 6 8 9 9 8 7 9 11 14 16 14 14 13 6 6 8 7 2 3 10 8 6 9 9 5 5 7 7 8 12 13 11 11 10 8 9 9
13 14 14 14 17 21 19 7 5 12 9 2 4 3 1 4 4 1 1 5 7 4 3 5 6 6 8 6 7 6 1 5 1 4 10 8 4 4 4 5 6 10 11 11 10 7 8 3 3 7 8 6 8 11 11 9 8 8 5 6 12 13 14 13 8 4 6 7 1 2 8 9 4 6 8 5 6 8 7 8 11 9 8 9 8 7 9 9
14 13 13 13 15 18 12 5 10 13 4 2 6 3 1 3 4 2 2 6 8 5 5 2 2 4 6 3 5 7 1 2 4 4 5 3 3 3 6 7 6 5 3 2 5 4 5 5 3 6 7 7 9 10 10 11 9 5 1 3 3 6 10 9 7 6 6 9 5 4 5 12 9 6 10 10 8 8 8 11 14 11 9 11 10 7 9 10
15 14 13 13 13 14 10 9 12 8 3 6 6 3 3 3 4 3 3 7 4 5 4 1 1 2 4 1 3 3 1 0 3 1 2 1 3 3 8 13 10 7 7 6 7 2 3 6 6 8 8 7 7 3 3 11 9 2 3 3 2 0 3 3 4 6 7 8 8 7 7 9 11 5 12 14 12 10 12 15 16 15 12 11 10 7 9 9
16 15 14 13 13 13 10 9 9 7 8 8 5 4 2 3 4 2 3 7 2 4 1 3 3 2 5 4 5 3 2 1 0 1 2 1 3 2 5 9 9 7 7 10 11 3 3 1 2 7 8 7 4 3 3 6 6 2 4 4 5 3 1 1 4 5 6 9 10 8 10 7 12 3 10 11 10 11 12 13 14 14 13 10 7 7 8 8
18 16 15 13 11 9 8 8 8 8 8 6 5 3 1 3 3 3 8 6 1 2 2 3 3 6 10 8 6 7 5 1 3 3 3 3 4 3 2 2 4 6 5 8 10 5 2 3 1 4 6 2 4 5 5 2 2 5 5 3 2 2 2 2 4 2 5 11 10 12 17 11 10 2 9 8 10 13 11 10 11 11 10 8 6 7 8 8
19 18 17 16 13 9 6 5 6 6 5 5 5 1 2 3 2 7 9 2 2 2 5 5 5 8 12 11 7 8 9 5 5 7 5 3 5 6 4 3 3 4 6 7 9 8 6 5 3 2 1 3 5 4 3 3 2 4 3 2 2 4 2 3 4 3 6 10 5 12 19 17 11 4 7 8 12 15 11 7 10 9 8 7 6 7 8 8
20 20 20 19 17 15 10 6 6 6 5 4 3 2 4 3 5 11 6 4 1 5 6 6 8 8 11 12 7 7 8 6 8 10 7 6 6 8 8 7 7 4 6 7 6 6 6 8 8 3 1 5 6 3 2 2 3 4 5 5 4 4 3 5 5 4 8 8 3 8 11 14 13 9 8 8 9 13 11 6 8 8 7 6 5 7 7 7
23 22 23 23 22 22 19 13 9 8 5 2 1 3 3 5 9 10 7 4 1 2 3 2 7 7 7 9 6 5 4 3 9 10 8 7 6 8 11 12 9 4 5 4 3 4 3 3 8 7 2 7 10 8 5 4 7 8 8 7 6 6 5 6 6 6 9 7 3 6 4 6 8 7 14 16 13 13 11 8 8 8 8 5 2 6 6 6
25 24 25 27 27 26 23 16 11 9 3 1 1 3 4 9 9 3 7 9 3 2 3 4 5 7 7 7 4 6 5 4 9 10 8 8 6 7 10 14 14 7 2 3 3 4 6 5 9 10 3 10 16 13 5 3 7 10 8 7 7 6 6 7 7 8 7 6 1 4 3 4 3 1 9 17 17 14 10 9 9 9 7 2 3 4 4 5
28 28 29 29 26 24 23 18 14 12 7 3 3 5 8 11 8 2 5 7 3 2 2 2 4 6 7 7 3 5 6 4 8 9 7 9 8 8 9 12 17 11 4 5 4 3 7 8 7 7 2 11 14 9 4 4 4 7 6 7 8 6 7 7 7 5 3 7 5 5 4 6 5 1 5 8 12 14 12 11 10 9 8 4 3 4 4 5
30 29 28 28 27 26 26 22 18 17 13 6 3 6 10 10 5 3 3 3 3 3 4 2 4 6 7 6 5 7 4 2 7 7 6 10 10 11 9 8 15 17 11 7 3 3 5 5 5 5 1 6 3 2 3 2 2 5 6 7 3 1 3 7 8 1 1 7 8 5 7 8 8 6 8 10 12 15 14 13 12 11 11 7 6 6 6 7
29 26 23 27 29 31 31 26 23 21 13 6 7 8 10 9 8 8 2 1 2 2 5 6 6 7 8 6 6 9 7 2 6 6 4 7 8 11 12 8 11 18 17 11 5 3 5 4 3 4 2 2 2 4 1 2 1 4 4 4 1 3 1 4 6 3 4 10 9 9 13 12 9 7 8 14 14 15 15 14 12 12 11 9 9 9 9 9
25 17 17 28 35 33 33 31 26 19 8 5 10 12 9 8 11 11 5 3 2 4 7 9 7 8 9 9 7 9 11 6 7 6 5 5 6 9 13 8 9 16 18 14 6 3 2 3 2 2 1 2 2 2 3 2 1 1 2 2 0 2 4 5 6 5 7 9 9 15 20 14 10 6 6 14 15 15 15 13 10 11 11 10 11 11 11 9
19 8 7 21 33 33 34 33 24 12 5 6 11 11 8 9 9 6 4 4 4 6 9 10 8 7 8 9 6 6 11 8 7 6 6 6 5 7 12 8 8 14 17 14 8 4 2 3 3 1 2 1 3 4 5 5 4 1 4 3 1 2 3 5 5 5 7 8 9 15 18 13 8 6 9 16 16 15 14 11 10 11 12 11 11 11 11 10
11 3 3 11 26 34 36 29 16 7 6 7 9 9 7 8 7 5 4 3 3 3 6 9 9 9 9 7 5 4 7 6 6 7 6 7 7 6 10 9 6 8 11 11 9 5 1 3 4 1 1 3 4 6 9 9 8 5 5 6 6 3 1 2 4 5 6 7 7 9 14 12 4 3 9 12 11 12 12 10 9 9 11 11 10 11 11 10
6 3 2 12 28 36 31 16 7 7 5 5 9 10 8 6 5 7 5 2 2 1 0 3 6 7 7 7 6 5 4 4 5 7 6 7 9 6 7 11 9 5 4 4 7 6 3 4 6 4 3 6 7 8 10 10 8 8 9 10 10 8 5 3 7 6 3 5 8 7 13 15 2 7 7 6 4 6 7 8 7 7 10 11 10 12 12 11
3 4 4 21 37 38 23 7 5 6 5 6 6 6 6 5 6 8 6 3 2 0 1 2 5 5 5 7 8 4 3 3 5 6 6 6 9 7 3 7 7 6 6 3 6 7 2 2 6 8 7 7 5 3 2 2 1 3 6 8 9 9 9 8 7 5 3 5 8 7 12 16 3 8 5 4 4 3 4 6 8 8 10 11 11 12 12 11
3 2 5 26 43 35 14 4 3 4 6 5 4 5 4 5 5 6 7 8 6 2 2 3 5 8 9 7 7 4 3 4 5 7 8 7 9 6 3 1 2 3 3 3 2 2 2 2 5 8 7 6 3 1 2 1 1 4 6 7 8 9 10 9 5 2 3 5 8 8 10 14 5 6 2 4 3 5 6 8 13 12 8 9 12 11 10 11
2 1 3 23 42 31 10 5 6 7 7 4 6 9 7 5 6 7 8 10 8 4 5 6 5 8 8 4 5 8 8 6 6 9 10 10 10 5 4 2 2 2 3 1 1 2 2 3 6 6 6 7 6 4 3 2 4 6 8 9 10 11 10 6 2 1 4 12 17 12 8 13 9 1 2 9 7 7 9 11 14 13 8 9 10 9 9 10
2 2 1 14 28 19 6 5 7 8 9 9 12 13 10 7 8 13 14 11 9 7 6 6 5 5 6 4 6 10 12 10 7 7 8 10 13 8 3 3 3 6 7 3 2 3 3 4 5 8 10 8 10 11 6 2 4 6 8 12 13 13 13 9 5 5 9 17 20 13 9 14 16 13 15 16 13 11 14 15 12 8 9 9 9 9 9 9
3 3 1 5 11 10 6 5 6 7 9 11 11 10 14 13 8 12 14 10 11 12 10 5 2 3 6 8 10 12 15 16 11 8 7 9 11 7 3 3 5 8 6 3 3 3 1 3 8 12 14 11 13 16 10 5 4 6 9 14 14 14 16 13 8 9 14 16 14 14 17 18 19 22 23 23 22 20 20 21 14 7 8 9 8 9 10 9
3 4 3 3 4 7 7 6 6 7 9 11 8 6 15 17 10 8 11 10 12 13 11 7 6 7 9 12 13 13 15 16 14 12 13 12 12 9 3 3 4 6 3 1 3 3 2 6 13 17 20 19 21 24 22 19 15 11 11 13 14 16 17 15 15 19 19 12 9 15 22 21 18 20 24 25 26 23 21 23 19 9 9 10 10 11 11 10
4 3 2 4 5 6 8 10 12 11 11 11 9 8 15 17 14 12 10 10 11 11 8 8 13 17 17 15 13 12 12 12 12 13 15 14 15 13 7 6 6 8 8 3 1 3 3 8 12 16 20 22 22 24 25 24 21 18 18 17 17 17 17 19 23 23 17 13 14 19 25 23 17 17 23 27 27 26 24 23 20 14 10 10 10 11 11 11
4 4 3 3 5 5 7 14 17 17 16 14 10 11 16 18 19 17 11 8 9 12 13 12 14 20 22 20 16 12 11 11 11 12 14 15 15 11 8 9 6 5 8 5 3 4 3 6 11 15 17 18 18 21 24 26 24 23 24 22 17 14 18 24 22 15 15 20 23 24 27 25 19 19 24 27 28 26 24 22 22 20 17 12 9 9 11 13
4 3 4 4 6 6 7 9 11 13 14 14 11 11 14 19 22 18 13 12 10 11 16 20 20 20 22 22 20 17 17 17 18 17 15 14 13 9 7 9 6 2 4 4 2 2 4 8 11 11 11 14 19 23 25 25 26 26 25 22 18 17 22 25 17 9 14 24 25 25 26 22 19 23 27 28 27 23 23 26 26 21 18 16 12 10 14 16
7 9 8 7 6 5 6 7 7 9 10 11 11 10 14 20 23 19 16 18 18 13 16 23 25 20 19 21 22 21 21 22 24 24 20 15 12 8 7 7 7 5 4 4 3 3 6 7 7 7 9 12 17 22 23 22 24 24 22 21 22 25 26 24 17 14 18 22 23 23 19 15 18 23 25 25 25 24 27 30 24 18 18 19 15 13 16 19
9 11 9 6 5 3 4 5 7 8 7 7 11 13 15 18 20 20 16 13 19 22 19 21 22 17 15 20 23 22 22 25 26 25 21 17 13 9 6 6 9 8 6 5 4 5 7 6 5 7 9 11 16 20 20 17 16 14 17 24 28 28 26 24 22 24 24 20 17 15 13 14 18 19 19 22 25 28 29 23 15 15 19 20 15 13 16 19
Wind_Direction
11 12 13 15 15 17 19 20 20 21 21 20 21 20 20 18 13 10 8 8 9 3 345 344 345 301 249 243 251 254 267 305 305 257 238 245 242 244 247 243 254 262 277 295 258 219 206 212 211 194 200 192 212 197 158 199 220 226 231 246 256 262 272 319 273 279 314 304 175 165 191 222 216 173 176 153 234 241 235 226 224 216 221 191 119 129 147 148
3 4 4 6 8 10 10 11 12 13 15 16 16 15 16 14 11 8 5 3 1 360 346 336 341 323 266 242 243 252 268 285 281 266 248 246 246 243 239 232 246 256 268 275 232 229 229 235 212 193 217 211 184 176 179 180 198 231 251 256 258 274 303 10 293 281 286 288 273 182 203 226 234 174 157 207 229 222 232 234 221 224 224 189 150 154 159 160
353 354 354 356 359 1 2 2 3 4 5 7 9 10 10 9 7 4 3 1 356 355 347 334 332 326 290 247 240 247 273 284 276 266 237 234 237 232 226 225 240 244 246 258 258 254 259 277 249 208 225 229 190 181 201 176 195 232 247 255 266 304 308 283 264 263 277 285 268 246 206 222 239 173 150 218 244 228 230 232 219 223 226 207 175 166 170 174
344 345 345 347 348 350 352 353 353 355 356 357 0 0 3 5 4 0 359 359 354 350 343 336 331 322 298 259 236 235 276 282 272 237 206 213 215 216 216 218 235 236 233 246 251 251 262 270 243 220 232 240 200 192 221 184 185 223 217 254 297 2 304 284 235 266 283 281 269 260 211 234 235 194 191 225 248 244 240 235 229 224 227 216 180 171 179 181
337 337 338 338 340 341 343 344 344 346 347 348 351 352 354 357 359 357 353 355 353 347 339 332 331 321 305 258 212 203 263 273 284 116 192 193 193 203 214 222 232 231 220 224 223 225 243 231 213 221 236 243 207 207 227 186 171 259 235 255 288 303 284 311 79 338 326 269 267 246 236 244 206 206 221 229 238 247 255 251 239 229 241 224 171 172 182 185
333 332 333 332 333 334 335 337 337 338 339 340 342 345 346 348 354 353 349 350 349 345 336 329 332 325 305 225 177 179 235 260 74 140 187 180 190 198 211 222 229 230 210 216 221 218 229 212 208 219 235 247 227 224 217 162 179 257 252 253 265 263 263 292 68 97 185 242 243 240 257 247 219 239 231 228 237 244 256 55 269 228 267 180 158 169 182 188
331 330 329 328 328 328 330 331 331 331 333 334 337 339 340 342 346 348 347 346 345 343 334 327 334 325 304 151 155 190 235 260 109 177 188 189 201 199 213 220 228 228 206 222 226 223 233 231 231 236 249 256 245 233 190 156 199 241 266 266 259 253 251 264 82 161 217 242 243 272 297 246 240 255 250 237 239 245 246 180 147 138 123 157 163 174 185 193
328 327 327 326 325 325 326 326 327 327 327 329 331 334 336 337 340 343 344 343 344 338 327 320 325 319 162 147 180 227 235 240 210 203 206 209 210 208 223 230 237 221 212 237 245 249 260 254 253 266 258 261 268 240 177 210 221 225 256 277 268 245 250 253 225 223 229 237 246 264 259 248 249 272 275 253 247 247 248 234 189 174 181 188 188 188 191 198
325 324 324 324 323 323 323 323 324 323 324 326 327 329 331 334 336 338 339 340 341 332 317 306 309 199 179 191 247 258 237 206 217 231 218 216 220 219 223 233 242 226 224 244 258 260 266 268 267 297 281 290 297 266 180 242 240 226 265 294 273 259 258 244 240 243 233 227 219 229 248 250 252 306 274 255 252 249 243 241 223 199 208 209 205 203 199 200
323 323 322 321 321 320 321 321 320 321 321 322 324 327 327 330 332 334 335 336 337 329 304 287 286 185 191 218 243 259 255 184 213 228 220 220 219 213 222 229 228 227 235 237 242 259 278 299 330 21 293 286 266 261 182 244 299 322 293 295 273 265 261 239 245 244 230 235 217 223 253 253 201 191 260 253 252 242 228 231 225 214 224 221 216 212 206 206
325 324 321 322 321 319 319 319 318 318 317 318 321 323 326 328 327 329 331 331 335 326 290 272 244 196 209 237 244 258 235 184 208 215 219 218 211 209 224 228 216 220 241 248 235 274 304 308 99 159 287 309 270 242 214 273 325 321 306 295 273 261 252 234 237 235 221 229 213 223 260 254 199 208 248 239 114 184 199 212 215 216 229 223 221 216 209 212
326 325 324 324 323 320 319 317 317 315 313 314 315 319 323 325 325 326 327 327 331 320 277 256 222 197 228 251 246 249 224 203 218 219 221 219 215 217 222 225 218 212 236 260 226 196 260 173 187 246 290 341 293 267 253 320 306 293 296 287 279 270 256 236 225 216 207 202 173 200 269 251 211 222 247 230 154 172 193 213 216 218 228 222 221 216 212 213
325 325 324 324 323 320 319 318 316 314 312 310 310 315 318 321 323 323 324 324 326 314 258 237 211 194 237 261 235 229 230 231 233 224 221 218 211 217 217 219 216 211 224 246 209 179 186 158 227 266 301 280 282 324 303 243 257 282 267 267 282 280 265 228 199 178 190 188 144 179 274 264 213 221 241 205 157 183 202 222 225 224 225 220 219 214 214 211
323 323 323 323 322 320 319 318 317 315 311 308 307 309 312 317 318 319 321 321 323 299 238 227 205 186 232 260 232 229 233 235 233 218 216 204 182 188 187 191 202 203 208 206 189 178 174 166 228 255 175 264 291 13 264 236 216 260 256 245 256 268 268 180 164 167 182 174 150 184 257 274 261 235 221 166 162 192 213 225 227 229 223 215 215 212 214 210
322 322 322 322 321 319 318 318 318 315 310 307 304 306 310 311 312 315 315 315 314 270 236 219 195 190 257 255 236 239 232 229 221 210 209 186 174 184 163 155 151 159 166 165 166 157 156 173 221 239 157 136 265 260 267 259 228 231 247 258 241 245 254 190 176 187 196 155 170 196 236 263 281 277 158 148 172 194 225 236 231 237 232 219 211 208 214 212
322 322 322 322 321 320 319 319 318 314 310 305 302 303 306 308 308 307 305 306 295 241 210 202 191 206 283 266 190 238 225 219 211 210 211 190 189 194 151 140 125 125 129 134 142 139 156 198 234 285 262 211 239 250 267 273 256 228 226 261 261 255 265 230 176 198 212 146 178 210 249 264 274 286 124 146 184 197 231 247 245 250 247 233 219 207 209 209
322 322 325 325 324 323 321 321 319 315 312 306 304 304 303 306 302 299 295 274 257 203 182 219 182 200 262 232 216 249 193 196 198 201 207 196 192 177 154 156 147 135 129 131 146 161 185 206 199 262 233 230 243 244 260 265 264 250 227 249 263 264 270 257 202 198 199 192 208 216 236 256 262 264 246 201 192 205 235 254 257 258 255 245 233 217 208 204
321 324 329 331 332 329 325 325 321 318 315 310 310 309 307 304 289 285 265 200 159 142 191 232 183 211 238 198 220 230 125 169 185 187 198 195 188 177 179 189 161 159 161 169 191 191 198 203 208 258 246 231 226 218 231 242 256 280 274 266 273 271 264 262 264 162 175 203 232 228 234 250 257 264 267 255 228 223 236 253 260 259 257 253 243 231 218 207
318 324 331 336 337 335 331 330 324 323 320 316 320 319 310 296 270 239 187 174 161 190 237 180 187 235 290 168 168 109 115 146 163 177 182 182 177 175 198 193 168 189 203 202 190 186 195 204 219 254 245 228 221 214 222 241 260 284 289 284 284 283 270 269 277 146 180 212 231 236 246 256 260 261 265 268 262 253 252 256 259 260 259 256 249 242 228 215
313 321 329 335 339 338 337 334 327 328 325 324 338 337 300 265 256 228 189 200 219 243 281 204 200 250 285 160 137 134 140 155 169 179 170 167 162 173 197 187 181 214 226 224 195 170 191 225 232 240 242 241 240 233 235 251 268 283 284 280 275 274 272 272 273 146 183 235 245 246 253 260 264 264 264 269 271 270 270 264 259 260 260 255 250 246 232 220
308 314 323 332 338 339 339 337 331 330 329 335 349 331 295 298 284 283 198 240 234 238 266 253 231 271 271 162 145 158 155 201 199 174 169 168 161 180 191 181 201 222 219 221 190 125 189 224 236 241 250 259 266 263 255 259 269 272 269 273 273 267 267 273 263 140 168 226 260 263 265 265 264 265 265 265 265 264 263 263 263 264 267 263 254 249 237 214
302 307 317 326 335 339 340 338 333 332 337 344 334 298 335 14 318 353 14 273 248 225 251 261 267 272 257 191 175 169 206 243 219 175 170 172 178 198 187 179 216 226 189 188 178 188 213 231 244 248 254 266 272 276 267 263 264 265 261 261 265 263 270 274 178 135 171 215 270 279 277 274 270 266 262 257 257 255 250 255 264 269 271 267 260 255 232 190
297 303 312 320 332 337 339 335 332 339 348 348 327 307 342 14 68 115 167 276 273 224 224 235 235 246 239 219 189 178 220 238 232 196 173 171 186 209 205 197 224 232 187 193 211 215 222 235 248 251 234 239 253 241 241 257 252 244 244 247 255 256 267 268 184 146 202 218 274 293 284 275 268 258 250 247 248 250 250 252 260 264 264 263 266 267 221 186
296 301 308 318 326 332 337 333 331 340 338 341 334 319 320 251 115 108 236 272 269 225 213 231 235 242 235 215 175 189 223 233 233 202 170 173 180 185 218 219 226 238 218 218 222 225 239 241 201 173 182 229 251 232 217 240 246 231 227 235 249 253 257 264 298 341 256 233 254 295 283 268 258 246 239 236 232 244 252 251 255 256 255 259 264 256 214 190
295 297 306 315 318 329 336 331 337 346 332 337 330 320 338 161 137 82 307 267 251 220 180 214 209 229 216 169 164 183 234 233 225 181 165 184 189 163 207 221 223 239 232 229 230 236 248 236 126 193 212 208 235 243 226 225 250 244 225 230 244 258 264 268 309 353 297 264 161 324 298 272 232 233 234 197 178 217 229 237 247 246 244 254 256 229 199 195
289 293 304 309 312 328 336 331 341 334 322 310 327 327 146 171 156 86 321 269 252 195 138 188 183 191 180 157 159 146 316 254 232 102 162 197 229 191 223 200 207 248 242 235 239 245 246 195 129 228 231 213 230 252 238 218 244 252 237 244 247 257 266 268 287 307 281 281 193 64 308 285 230 217 229 204 191 195 189 229 246 240 229 235 245 211 182 195
283 286 295 299 309 327 338 328 325 326 308 326 338 323 228 199 197 255 287 277 261 169 135 191 191 171 156 139 160 149 222 261 79 98 166 204 228 218 241 207 195 238 224 227 250 232 203 181 179 216 224 227 230 251 237 211 229 248 15 354 259 253 261 259 269 255 260 292 280 175 247 278 272 221 217 221 222 209 208 241 253 251 232 222 229 200 174 192
277 278 284 288 298 315 320 305 311 320 303 326 336 294 276 236 233 271 274 273 267 124 124 188 128 107 107 67 219 180 318 231 127 120 80 347 230 202 231 227 232 230 181 191 232 227 158 187 194 187 199 226 223 258 216 195 218 249 61 39 62 14 264 241 247 256 272 292 273 201 185 265 281 212 193 209 215 217 223 237 249 252 246 234 227 196 174 189
270 270 272 273 284 301 307 296 292 290 291 311 320 296 290 237 244 267 248 256 219 121 138 136 140 171 129 133 222 226 6 40 84 36 96 208 237 237 244 243 261 255 198 210 241 288 68 173 211 186 200 224 195 48 24 206 214 152 115 90 78 89 102 172 241 268 283 273 259 212 171 235 284 203 167 195 202 209 222 232 241 244 246 239 211 177 171 181
264 264 261 261 269 283 293 283 265 274 294 308 308 311 279 233 247 235 234 245 254 114 112 128 171 167 148 157 208 216 218 213 95 133 173 180 197 228 276 260 271 270 237 240 263 274 123 88 5 218 217 210 107 73 23 5 123 135 145 121 114 187 165 204 237 260 278 264 244 203 181 208 273 191 145 179 194 196 203 219 238 243 242 226 180 165 173 172
261 258 252 247 243 244 265 268 249 270 305 311 307 298 218 232 222 237 235 257 326 170 137 178 180 149 166 185 198 191 200 215 148 158 191 171 179 203 213 196 200 246 251 247 256 245 201 178 201 219 188 124 111 101 53 50 133 164 172 187 216 227 197 213 215 164 249 263 222 184 186 199 236 217 153 183 193 190 185 207 249 259 252 227 170 163 173 167
259 256 249 243 236 233 239 240 246 273 297 315 321 225 225 226 221 237 228 67 332 192 155 182 178 171 197 208 213 178 183 209 182 181 197 182 188 199 202 201 174 193 243 228 228 229 216 208 192 146 92 184 171 152 103 110 186 202 190 194 231 245 229 229 219 189 235 255 139 155 189 209 236 245 228 225 198 188 190 217 260 265 255 241 176 156 165 161
260 255 247 240 234 231 233 235 241 254 274 339 325 218 218 233 236 229 192 161 225 171 107 125 167 181 199 209 219 175 176 210 176 187 203 186 207 215 212 217 203 223 257 214 214 216 224 230 174 167 209 193 187 195 202 186 185 194 190 186 206 232 247 246 238 236 247 249 140 129 182 235 261 252 227 229 215 200 209 226 242 246 243 246 166 137 150 164
262 255 246 239 234 232 231 230 224 221 220 60 209 189 185 230 242 196 182 206 216 98 72 71 150 184 203 220 207 166 207 224 165 181 201 187 212 223 216 220 217 235 277 221 253 219 243 272 178 173 172 169 188 211 213 139 174 195 195 197 214 228 240 246 251 253 267 289 213 146 180 237 272 150 198 219 216 202 219 230 223 232 229 192 92 124 150 179
262 254 248 237 226 224 222 216 210 194 153 115 225 193 196 229 239 202 218 221 203 145 101 76 158 190 222 231 203 190 225 221 170 180 202 200 213 216 210 210 205 204 193 214 239 181 240 265 166 140 113 161 184 216 178 117 184 196 186 208 232 239 229 247 276 274 315 316 270 191 220 247 257 232 160 200 202 187 209 227 215 225 219 168 152 191 181 187
253 246 242 227 216 216 213 204 196 177 148 132 198 209 222 237 235 228 257 242 221 168 131 189 198 203 234 221 195 207 215 209 183 187 214 217 229 231 219 205 195 193 188 194 208 173 232 267 131 115 346 157 170 273 175 185 228 167 177 207 227 323 240 248 273 291 91 283 266 221 243 258 266 251 170 164 181 182 204 221 214 223 219 199 208 215 202 197
240 234 228 220 215 213 209 200 184 169 153 149 181 211 233 238 239 245 252 77 260 183 170 228 212 199 230 232 208 193 175 186 189 188 215 206 228 228 212 213 197 193 200 202 216 228 230 262 167 170 226 141 6 328 248 305 325 142 186 217 91 37 311 249 262 268 244 263 270 260 261 262 267 259 168 164 182 192 208 217 216 223 219 214 222 223 218 206
234 223 224 225 218 209 204 194 175 160 146 165 203 225 233 228 235 237 202 141 206 195 202 233 217 196 223 246 239 179 166 188 174 177 221 204 220 203 186 205 199 194 209 211 224 268 211 252 244 178 281 101 94 266 220 209 213 172 275 293 75 223 211 204 227 247 250 259 270 272 274 267 251 250 175 175 191 202 211 213 213 219 215 216 226 229 228 212
234 212 242 230 216 205 195 182 164 150 151 179 210 227 229 230 233 226 192 185 209 204 215 236 232 219 229 248 261 174 171 192 171 174 215 207 220 182 165 188 198 200 210 199 208 247 188 229 245 43 343 115 141 219 208 176 169 242 297 273 224 246 234 211 211 228 241 250 265 278 282 272 244 229 177 175 191 204 206 203 207 215 215 215 222 229 231 220
223 205 287 210 199 193 181 168 153 156 183 192 216 226 228 234 227 216 216 212 225 224 230 243 243 244 242 244 267 229 198 209 194 200 211 196 221 205 168 179 192 204 209 193 205 230 140 230 238 81 338 236 205 199 194 191 182 184 225 220 199 197 266 288 249 234 237 246 255 268 275 273 264 165 164 163 185 200 195 199 205 207 215 217 220 227 230 229
192 247 252 170 179 174 163 156 161 177 193 218 227 233 240 246 237 229 220 180 238 272 30 254 247 255 260 251 249 232 207 230 221 223 232 214 232 235 171 186 195 165 145 172 214 212 179 212 225 211 211 226 221 196 196 206 193 186 199 201 199 191 182 229 236 224 212 241 246 246 265 272 255 120 133 123 151 193 193 209 210 201 214 218 219 226 227 228
206 274 165 164 171 163 154 174 197 181 211 221 227 243 233 234 250 239 215 163 193 210 58 271 244 238 254 255 253 230 164 221 230 228 241 233 239 251 189 194 195 148 139 179 216 212 174 164 224 232 230 233 230 177 201 256 240 251 231 207 207 194 186 211 221 209 185 222 245 245 258 268 245 111 98 84 117 189 209 226 242 238 222 217 221 224 225 226
224 291 147 167 170 162 158 212 192 201 232 233 271 273 227 224 249 241 222 207 200 177 193 240 250 239 240 246 250 242 205 216 222 234 259 271 260 279 342 243 166 141 200 234 232 213 82 95 226 244 260 270 268 89 49 12 200 257 253 225 221 213 210 221 222 217 186 196 230 235 242 260 264 97 72 293 256 239 229 230 250 254 228 212 223 223 222 229
210 247 134 175 177 171 174 203 192 218 230 248 264 247 239 246 236 234 228 208 194 178 205 225 236 232 232 225 229 240 241 238 238 245 259 270 265 291 1 300 190 173 241 294 21 212 187 192 215 237 257 263 259 240 226 204 198 225 234 221 222 223 221 232 247 239 232 228 236 243 246 255 260 127 253 271 256 228 228 232 243 251 234 212 221 223 222 228
241 235 129 185 190 192 208 208 207 219 218 228 237 232 236 241 229 235 237 219 199 189 204 227 224 209 206 201 225 240 242 242 246 240 233 249 259 263 276 258 217 224 245 286 322 241 226 210 198 222 236 230 234 240 233 166 177 214 233 224 219 215 210 220 230 216 234 240 239 243 251 257 269 283 282 281 272 257 257 256 247 242 240 226 215 220 222 220
263 239 194 184 206 225 246 231 223 215 207 219 229 228 230 234 236 233 231 227 215 207 211 223 199 197 204 207 227 238 235 233 231 228 226 233 247 247 198 180 222 235 252 305 272 215 201 223 214 229 241 237 242 252 264 268 207 192 216 220 215 212 210 216 228 225 234 242 239 242 250 258 269 275 279 281 276 271 271 271 264 235 228 233 222 220 221 218
270 243 183 161 213 234 244 252 240 219 207 209 204 200 219 228 235 223 210 214 220 217 222 220 202 213 214 209 225 236 233 231 225 226 239 240 241 241 185 157 220 214 185 295 248 178 152 234 229 236 243 243 249 256 262 264 255 236 233 225 214 214 213 211 222 230 234 243 248 244 249 254 258 262 270 274 273 272 271 272 274 253 217 221 224 226 229 229
258 272 197 185 210 213 223 231 231 232 225 211 201 206 218 222 225 221 208 210 218 210 209 217 214 220 223 216 222 233 231 234 229 225 234 240 242 246 230 213 214 183 169 185 177 140 198 240 237 243 247 245 250 256 259 263 263 258 257 248 227 214 208 212 225 230 229 239 249 247 249 254 255 257 263 266 268 271 271 273 277 270 248 232 222 222 232 235
246 275 287 264 242 226 226 223 220 224 224 216 213 215 220 223 224 222 212 204 216 206 206 221 214 213 223 222 223 231 224 227 234 226 224 228 231 237 237 233 227 168 164 179 159 147 198 236 234 243 253 253 255 258 258 261 264 262 258 254 243 224 216 222 229 226 225 237 245 249 253 258 261 259 260 263 265 270 275 277 276 274 272 264 238 221 234 242
252 269 287 285 280 290 288 258 236 232 227 224 226 218 219 228 229 228 217 206 212 200 203 224 226 215 219 221 222 230 226 226 237 235 226 225 221 222 230 227 224 163 157 176 182 180 206 223 228 239 256 253 248 251 251 252 256 257 256 257 261 261 250 243 238 216 224 239 243 244 250 257 260 258 259 261 265 270 274 273 272 275 280 277 265 251 254 257
297 321 317 295 283 278 278 273 258 253 239 225 229 226 225 230 230 234 233 221 222 211 196 215 227 224 223 223 224 231 230 230 239 241 239 237 225 216 222 217 206 191 168 169 173 180 206 226 226 229 246 243 238 241 243 245 251 255 259 261 257 255 255 253 246 230 229 240 246 247 249 250 251 256 260 263 266 267 266 265 270 279 278 274 270 262 258 260
312 328 324 302 285 247 240 260 254 255 253 233 235 237 237 239 237 239 244 233 229 231 222 217 223 224 228 229 226 226 227 229 236 242 245 250 250 236 217 200 194 179 165 185 195 179 196 219 215 216 236 242 236 239 242 243 250 249 243 243 241 242 248 252 252 247 241 240 244 245 241 240 245 253 259 262 263 261 259 261 269 273 270 271 270 258 253 257